Powrót do katalogu

COSMOS 2251 DEB

AktywnyLEO
NORAD 35667·DEBRIS·🇷🇺 Russia

Wystrzelony Jun 16, 1993 z Plesetsk Cosmodrome

Loading…

Następne Przeloty (najbliższe 24 godziny)

TLE

NieaktualneSource: Space-Track

Epoka: Sep 1, 2026, 13:58 UTC

1 35667U 93036APJ 26244.58243237  .00002248  00000-0  45165-3 0  9990
2 35667  74.0572 358.1298 0020099 347.8741  12.1939 14.62126263746425

Śledź COSMOS 2251 DEB w czasie rzeczywistym z AllMySat

Download on the App Store